Location: Cartignies
(50.0929°N, 3.8447°E)
Time: 14:39:02
(UTC+00:00)

Cosmos 1741 Rocket - Pass Details

Date: 12 January 2026
Orbit: 758 x 777 km, 74.0° (Epoch: 15 February)

Event Time Altitude Azimuth Distance (km) Brightness Sun altitude
Rises 18:41:04 0° 333° (NNW) 3,242 7.5 -23.9°
Reaches altitude 10° 18:43:29 10° 330° (NNW) 2,309 6.8 -24.3°
Maximum altitude 18:48:37 58° 252° (WSW) 884 4.5 -25.1°
Drops below altitude 10° 18:53:41 10° 174° (S) 2,284 6.4 -26.0°
Sets 18:56:04 0° 171° (S) 3,204 7.2 -26.3°
